Location: Ferintosh
(52.7647°N, 112.9692°W)
Time: 21:37:19
(UTC+00:00)

A-11 Canister half - Pass Details

Date: 28 May 2024
Orbit: 1524 x 1683 km, 47.3° (Epoch: 19 June)

Event Time Altitude Azimuth Distance (km) Brightness Sun altitude
Rises 11:05:44 0° 283° (WNW) 4,795 11.2 -2.1°
Reaches altitude 10° 11:11:12 10° 259° (WSW) 3,842 10.6 -1.5°
Maximum altitude 11:15:01 13° 235° (SW) 3,630 10.3 -1.0°
Drops below altitude 10° 11:18:51 10° 212° (SSW) 3,883 10.5 -0.6°
Sets 11:24:30 0° 187° (S) 4,894 11.2 0.1°
